Flag for U.S.A. Weather past 2 weeks in Paramus, New Jersey, U.S.A.

Now
24 °F

Clear.


Feels Like: 16 °F
Forecast: 13 / 35 °F
Wind: 7 mph from Southwest

Location: Teterboro Airport

Current Time: Mar 6, 2015 at 7:42:33 PM

Latest Report: Mar 6, 2015 at 6:51 PM


Visibility: 10 mi

Pressure: 30.40 "Hg

Humidity: 48%

Dew point: 7 °F

Location of ParamusLocation

Historic Weather in Paramus — Graph

°F

Paramus temperature yesterday

Maximum temperature yesterday: 39 °F (at 12:51 AM)
Minimum temperature yesterday: 19 °F (at 11:51 PM)
Average temperature yesterday: 27 °F

Past Weeks' High & Low Weather Summary

 TemperatureHumidityPressure
High48 °F (Mar 4, 2:51 PM)93% (Feb 21, 5:54 PM)30.82 "Hg (Feb 21, 5:54 PM)
Low1 °F (Feb 20, 5:51 AM)26% (Feb 28, 2:51 PM)29.73 "Hg (Mar 4, 3:51 AM)
Average24 °F58%30.23 "Hg
* Reported Feb 19 5:51 PM — Mar 6 5:51 PM, Paramus, Weather by CustomWeather, © 2015

Note: Actual official high and low records may vary slightly from our data, if they occured in-between our weather recording intervals... More about our weather records

Advertising

Paramus weather history for previous 24 hours

 ConditionsComfort  
Time TempWeatherWind HumidityBarometerVisibility
5:51 PM
Fri, Mar 6
25 °FSunny.8 mph48%30.40 "Hg10 mi
4:51 PM26 °FSunny.8 mph38%30.41 "Hg10 mi
3:51 PM27 °FSunny.3 mph34%30.43 "Hg10 mi
2:51 PM25 °FSunny.5 mph37%30.45 "Hg10 mi
1:51 PM26 °FSunny.3 mph33%30.47 "Hg10 mi
12:51 PM27 °FSunny.3 mph35%30.51 "Hg5 mi
11:51 AM21 °FSunny.No wind41%30.53 "Hg10 mi
10:51 AM19 °FSunny.3 mph45%30.54 "Hg10 mi
9:51 AM20 °FSunny.3 mph41%30.55 "Hg10 mi
8:51 AM16 °FSunny.7 mph53%30.54 "Hg10 mi
7:51 AM13 °FSunny.9 mph56%30.55 "Hg10 mi
6:51 AM11 °FSunny.5 mph61%30.53 "Hg10 mi
5:51 AM11 °FClear.5 mph61%30.51 "Hg10 mi
4:51 AM12 °FClear.6 mph58%30.48 "Hg10 mi
3:51 AM13 °FClear.7 mph56%30.45 "Hg10 mi
2:51 AM14 °FClear.9 mph53%30.43 "Hg10 mi
1:51 AM15 °FClear.13 mph53%30.42 "Hg10 mi
12:51 AM17 °FClear.13 mph51%30.40 "Hg10 mi
11:51 PM
Thu, Mar 5
19 °FClear.14 mph47%30.39 "Hg10 mi
10:51 PM20 °FClear.9 mph48%30.35 "Hg10 mi
9:51 PM21 °FClear.16 mph47%30.34 "Hg10 mi
8:51 PM22 °FOvercast.7 mph50%30.30 "Hg10 mi
7:51 PM22 °FMostly cloudy.7 mph55%30.27 "Hg10 mi
Weather by CustomWeather, © 2015

See weather overviewHow to use our weather pages